Location: Bli��� Lhota
(48.7570°N, 14.0120°E)
Time: 02:48:39
(UTC+00:00)

USA 238 - Pass Details

Date: 18 September 2020
Orbit: 1006 x 1206 km, 63.4° (Epoch: 15 October)

Event Time Altitude Azimuth Distance (km) Brightness Sun altitude
Rises 17:41:44 0° 315° (NW) 3,904 7.6 -6.1°
Reaches altitude 10° 17:44:31 10° 322° (NW) 2,975 6.8 -6.5°
Maximum altitude 17:51:18 45° 34° (NE) 1,519 4.4 -7.6°
Enters shadow 17:58:17 10° 106° (ESE) 3,075 5.4 -8.8°
